Wind_Speed
16 15 15 15 16 18 20 21 22 23 24 24 23 24 24 24 24 24 24 24 25 25 25 26 26 26 27 26 26 27 27 27 28 30 31 29 28 27 25 24 24 23 22
12 12 13 15 17 19 21 22 23 23 24 24 24 23 23 24 24 23 23 23 23 23 23 24 24 24 25 24 25 27 28 27 28 30 31 31 30 29 27 26 25 25 24
11 12 13 16 18 20 21 23 24 24 24 24 24 23 23 22 22 22 22 22 22 22 22 22 22 23 23 23 24 24 25 27 27 28 30 31 31 31 30 29 28 27 26
11 13 15 17 19 19 21 22 23 23 23 23 24 23 22 22 21 22 22 22 22 22 22 22 22 21 22 22 22 23 23 23 24 26 28 30 31 31 31 31 31 31 30
12 14 16 17 18 19 19 19 20 19 19 20 20 20 20 21 21 21 21 22 22 22 22 22 22 22 22 22 21 21 21 22 23 23 26 29 30 30 31 32 34 34 32
11 13 14 15 17 17 17 17 17 16 16 17 19 19 19 19 19 20 20 21 22 22 22 22 22 22 22 22 22 21 21 21 22 23 23 26 28 31 33 33 34 35 34
11 13 14 15 16 16 16 16 16 16 16 16 17 18 19 20 20 20 20 21 22 22 22 22 22 23 23 23 23 22 21 22 22 22 23 24 26 29 31 31 33 35 36
12 14 15 15 16 16 17 17 16 16 16 17 18 18 19 20 20 20 20 20 21 21 22 22 22 23 23 22 22 23 23 22 22 23 23 23 24 26 28 29 31 34 36
12 13 14 15 16 16 17 17 16 17 17 17 18 18 19 19 19 19 20 20 21 21 21 21 22 21 22 22 22 22 22 22 22 23 23 24 24 24 25 28 29 30 33
13 14 15 15 16 17 17 17 17 17 17 17 18 18 18 19 19 19 19 19 20 20 20 20 20 20 21 21 22 22 22 22 22 23 23 23 24 25 26 27 28 29 30
15 15 15 16 16 16 16 16 16 16 17 17 17 18 18 19 19 19 19 19 19 19 20 20 20 19 20 21 21 22 22 22 22 23 23 23 24 24 24 26 27 28 29
16 16 16 16 16 16 16 16 16 16 16 17 17 18 18 19 19 19 19 19 19 19 19 19 20 19 19 20 20 21 21 21 22 22 23 23 23 23 23 24 25 26 28
17 17 17 17 17 17 16 16 16 15 15 15 15 16 16 17 17 18 18 18 18 19 19 19 19 19 19 19 19 20 20 21 21 21 22 22 23 23 24 24 24 25 27
19 19 19 18 18 17 16 15 14 13 13 13 13 14 14 15 15 16 17 17 18 18 18 18 18 18 19 19 19 19 19 20 20 20 21 21 22 23 23 24 24 25 26
19 19 18 17 16 15 13 12 11 11 10 10 10 10 11 12 12 12 13 14 14 15 15 16 16 17 17 17 18 18 19 19 19 19 20 20 21 22 23 24 25 25 26
19 18 17 16 14 12 11 10 9 8 8 7 7 7 7 7 6 6 7 8 8 9 10 11 12 13 14 14 15 15 15 16 17 17 18 19 19 20 21 22 24 25 26
18 17 16 14 12 11 10 9 9 8 8 7 7 6 6 5 4 3 2 2 3 4 5 6 7 8 9 10 11 12 12 13 13 15 16 17 18 20 21 22 24 25 27
18 17 16 14 12 11 10 10 10 10 10 10 10 9 9 8 7 6 4 3 2 1 1 0 1 3 4 5 6 7 8 9 11 12 14 15 17 19 20 22 23 25 26
18 18 17 15 13 12 12 11 11 12 12 12 12 12 12 11 10 10 9 8 7 6 5 4 3 2 2 2 3 4 6 7 9 11 12 14 16 18 19 21 22 24 26
18 18 17 16 15 14 14 14 14 14 14 14 14 14 14 14 13 13 12 11 10 9 8 7 6 5 5 4 5 5 6 7 9 10 12 14 15 17 19 20 22 24 26
18 17 17 17 16 16 15 15 15 15 15 15 15 15 15 15 14 14 14 13 13 12 11 10 9 8 7 7 7 7 8 9 9 11 12 14 15 16 18 19 21 22 24
17 17 17 17 16 16 16 16 16 16 16 16 16 16 16 15 15 15 15 15 14 14 13 12 11 10 10 9 9 10 10 10 11 12 13 14 15 16 17 19 20 21 22
16 16 16 16 16 16 16 16 16 16 16 16 16 16 15 15 15 15 15 14 14 14 13 13 12 12 11 11 11 11 12 12 12 13 14 15 16 17 18 19 20 21 22
14 15 15 15 15 16 16 15 16 16 16 16 16 16 15 15 15 15 14 14 14 14 14 14 13 13 13 13 13 13 13 13 14 14 15 16 17 18 19 20 21 23 23
12 13 13 14 14 15 15 15 15 15 15 15 15 15 15 15 15 15 14 14 14 14 14 14 14 14 14 14 14 14 14 14 15 15 16 17 18 19 21 22 23 24 25
10 10 11 12 13 13 14 14 14 14 14 14 14 14 14 14 14 14 14 13 13 13 13 14 14 14 14 15 15 15 15 16 16 17 18 19 20 21 22 23 24 25 26
Wind_Direction
247 254 263 265 269 272 274 276 276 277 278 277 277 279 280 279 279 278 278 277 275 273 271 271 272 271 267 264 257 253 254 252 247 244 239 238 236 236 236 237 236 236 235
252 262 269 272 274 277 279 280 281 281 279 278 277 279 280 279 278 277 277 276 275 273 271 270 270 269 267 263 258 256 254 253 248 245 241 239 236 236 236 236 237 237 237
257 267 275 280 281 280 283 284 282 283 279 276 276 277 278 278 278 277 276 276 274 273 272 269 269 268 267 266 261 258 257 254 250 247 242 237 235 236 236 235 237 238 239
265 274 280 285 287 286 287 287 284 283 279 276 275 274 274 274 275 276 275 274 273 272 271 269 268 267 265 266 262 260 258 255 253 248 243 241 238 237 237 236 238 239 240
274 278 282 287 289 290 291 289 287 284 278 275 273 272 272 273 273 274 274 272 271 270 269 269 267 266 265 264 263 260 258 255 255 252 246 243 239 238 238 240 240 241 242
281 284 287 289 291 292 291 291 289 288 281 277 273 269 270 272 272 271 272 271 269 269 268 267 267 266 264 263 263 261 259 257 257 254 250 245 242 241 241 243 243 243 244
291 293 292 293 294 295 296 294 290 286 282 279 272 270 271 273 272 271 271 270 269 268 267 266 265 265 264 261 260 259 259 260 259 258 256 250 247 247 245 245 245 245 245
299 298 298 298 297 296 295 294 290 285 279 276 275 274 272 273 273 271 270 269 269 268 266 265 264 264 263 262 259 259 258 259 259 258 258 254 253 253 249 248 247 247 247
307 304 302 301 299 297 295 294 290 286 282 279 277 273 271 271 272 272 270 269 268 268 267 265 263 263 262 260 259 258 258 258 259 258 258 257 255 256 255 252 250 251 251
312 309 306 303 300 298 296 293 289 285 282 279 275 271 270 269 270 271 270 268 269 267 266 265 263 262 261 260 260 259 258 258 258 259 258 258 258 257 257 256 255 255 255
318 315 312 309 306 303 299 295 291 287 283 279 274 271 269 268 269 270 269 267 267 267 265 264 263 262 259 260 259 259 258 258 258 259 259 259 260 261 259 259 258 258 258
325 322 318 314 311 308 303 299 295 291 287 282 277 273 271 269 268 267 266 266 265 264 265 264 263 261 260 259 258 257 258 258 259 259 260 259 260 261 262 263 263 262 261
331 328 324 320 317 313 308 304 299 294 289 285 281 277 274 271 268 266 265 264 263 263 263 263 261 260 259 258 258 258 258 259 259 260 261 262 262 263 265 265 265 265 265
333 330 327 323 321 317 314 310 305 301 296 291 287 283 278 275 272 269 267 265 264 262 260 260 259 259 259 259 260 260 260 260 262 263 264 266 267 267 267 268 269 268 268
336 333 331 329 327 325 323 320 318 315 312 307 301 295 289 283 277 272 268 267 264 261 260 258 257 258 259 260 262 263 263 264 264 265 267 269 270 270 271 271 271 271 271
344 343 342 340 339 339 340 340 340 338 336 332 325 319 315 305 291 282 273 266 264 262 258 255 257 259 260 261 264 264 266 267 266 267 270 272 274 275 276 276 276 276 276
356 356 356 356 357 360 3 6 6 6 6 7 8 6 4 3 354 336 319 285 269 262 260 257 252 254 258 262 266 268 269 271 273 274 276 278 280 281 282 282 282 282 281
6 8 9 10 13 17 20 23 26 29 32 34 35 37 37 37 39 43 44 45 50 51 43 326 254 263 269 274 278 281 284 285 285 286 287 289 290 290 290 290 289 288 287
15 16 19 22 27 31 34 38 42 44 45 46 47 48 50 52 55 57 59 61 65 69 69 65 53 38 6 327 315 310 306 304 303 302 301 301 300 300 299 298 296 295 293
22 23 26 32 38 43 46 48 50 51 53 54 55 56 58 60 61 63 64 64 64 64 64 63 61 54 43 27 10 358 347 336 328 324 321 317 315 312 310 307 304 302 299
28 30 35 41 46 49 51 53 54 56 58 58 59 60 62 63 63 63 63 62 61 61 61 61 58 53 47 39 28 17 7 358 351 343 338 333 330 326 322 319 316 313 310
34 37 42 46 50 51 54 56 57 59 59 60 60 61 61 62 62 63 63 62 62 62 61 60 58 53 48 41 33 25 16 7 359 354 350 346 343 339 336 334 331 327 323
38 41 45 48 50 52 54 55 57 58 59 59 59 59 59 60 60 60 60 59 58 57 56 54 51 47 44 39 33 27 22 17 13 9 4 359 355 351 349 346 343 339 334
42 44 46 48 50 52 53 55 55 55 56 57 57 57 57 58 58 57 56 55 55 53 51 48 46 44 41 37 34 31 26 22 18 14 11 8 6 3 360 357 354 351 347
44 46 48 49 50 50 51 51 52 52 52 52 53 53 53 53 52 51 52 52 50 48 46 44 43 41 39 36 33 29 25 22 20 17 14 12 9 7 5 3 1 360 358
45 46 48 49 49 48 47 47 47 47 47 47 47 47 47 47 46 45 45 45 45 43 42 42 40 38 35 32 30 27 24 21 19 17 15 12 10 9 8 6 6 5 4
Height
5789 5791 5793 5794 5795 5796 5797 5798 5798 5798 5799 5799 5799 5800 5800 5800 5800 5799 5799 5799 5799 5799 5799 5799 5799 5799 5799 5800 5801 5803 5804 5806 5808 5809 5812 5815 5818 5821 5823 5826 5828 5830 5832
5786 5788 5790 5791 5792 5793 5793 5793 5793 5792 5792 5792 5793 5793 5793 5793 5793 5793 5793 5793 5793 5792 5793 5793 5793 5793 5793 5794 5795 5796 5798 5799 5801 5802 5805 5808 5811 5814 5817 5820 5822 5825 5827
5784 5785 5787 5787 5788 5789 5788 5788 5787 5786 5785 5786 5786 5787 5787 5787 5787 5787 5787 5786 5786 5786 5786 5787 5787 5787 5787 5788 5788 5790 5791 5792 5793 5795 5798 5800 5804 5807 5810 5814 5816 5818 5821
5782 5783 5784 5784 5784 5784 5783 5782 5781 5780 5779 5779 5780 5780 5781 5781 5781 5781 5781 5781 5780 5780 5781 5781 5781 5781 5782 5782 5783 5784 5785 5786 5787 5789 5791 5794 5797 5800 5803 5806 5809 5811 5814
5780 5780 5780 5780 5780 5779 5778 5777 5776 5774 5774 5774 5774 5775 5775 5775 5775 5775 5775 5775 5775 5775 5775 5775 5775 5776 5776 5777 5777 5778 5779 5780 5781 5782 5784 5787 5789 5793 5796 5799 5801 5804 5807
5777 5777 5777 5776 5775 5774 5773 5772 5771 5769 5769 5769 5769 5769 5769 5769 5768 5768 5768 5769 5769 5769 5769 5769 5769 5770 5771 5772 5772 5773 5774 5775 5776 5777 5778 5780 5782 5785 5788 5790 5793 5797 5800
5774 5774 5773 5772 5771 5770 5768 5767 5766 5765 5764 5764 5764 5764 5763 5763 5762 5762 5762 5762 5762 5762 5763 5763 5764 5764 5765 5766 5766 5767 5768 5769 5771 5772 5772 5773 5776 5778 5780 5782 5785 5788 5791
5771 5770 5769 5768 5766 5765 5764 5762 5761 5760 5759 5759 5758 5758 5757 5757 5756 5756 5756 5756 5756 5756 5756 5757 5757 5758 5759 5760 5761 5762 5763 5764 5765 5766 5767 5768 5770 5771 5773 5775 5777 5779 5782
5768 5766 5765 5763 5762 5760 5758 5757 5755 5754 5754 5753 5752 5752 5751 5751 5751 5750 5750 5750 5750 5750 5751 5751 5752 5752 5753 5754 5755 5756 5757 5758 5759 5760 5762 5763 5764 5765 5766 5767 5769 5771 5773
5764 5763 5761 5759 5757 5755 5753 5751 5750 5749 5748 5747 5746 5746 5745 5745 5745 5745 5744 5744 5744 5744 5745 5745 5746 5747 5748 5749 5750 5751 5752 5753 5754 5755 5756 5757 5757 5758 5759 5761 5762 5763 5764
5760 5758 5756 5754 5752 5750 5748 5746 5745 5743 5742 5741 5741 5740 5740 5739 5739 5739 5738 5738 5738 5739 5739 5739 5740 5741 5742 5743 5744 5745 5746 5747 5748 5749 5750 5750 5751 5752 5753 5754 5754 5755 5756
5756 5753 5751 5749 5747 5744 5742 5741 5739 5738 5736 5735 5734 5734 5733 5733 5733 5732 5732 5732 5733 5733 5733 5734 5735 5735 5736 5737 5738 5739 5740 5741 5742 5743 5744 5744 5745 5746 5746 5747 5747 5748 5748
5752 5749 5747 5744 5742 5739 5737 5735 5733 5732 5731 5729 5728 5728 5727 5727 5726 5726 5726 5726 5727 5727 5728 5728 5729 5730 5731 5732 5732 5733 5734 5735 5736 5737 5738 5738 5739 5739 5740 5740 5741 5741 5741
5749 5746 5742 5740 5737 5734 5732 5730 5728 5727 5725 5724 5723 5722 5721 5721 5720 5720 5720 5720 5721 5721 5722 5723 5724 5725 5726 5727 5727 5728 5729 5730 5731 5731 5732 5733 5733 5733 5734 5734 5734 5734 5734
5746 5742 5739 5736 5733 5730 5728 5726 5724 5723 5721 5720 5718 5717 5716 5716 5715 5715 5714 5715 5715 5716 5717 5718 5719 5720 5721 5722 5723 5724 5724 5725 5726 5726 5727 5727 5727 5727 5727 5727 5727 5727 5726
5744 5740 5737 5734 5731 5728 5726 5724 5722 5720 5719 5717 5716 5714 5713 5712 5711 5711 5710 5710 5711 5712 5712 5713 5714 5715 5716 5717 5718 5719 5720 5720 5721 5721 5722 5722 5722 5721 5721 5721 5720 5719 5719
5743 5740 5736 5733 5730 5728 5726 5724 5722 5720 5718 5717 5715 5713 5712 5710 5709 5709 5708 5708 5709 5709 5710 5710 5711 5712 5713 5714 5715 5715 5716 5716 5717 5717 5717 5717 5716 5716 5715 5714 5713 5712 5711
5744 5740 5737 5733 5731 5728 5726 5724 5723 5721 5719 5717 5715 5714 5712 5711 5710 5709 5709 5709 5709 5709 5709 5710 5710 5711 5712 5712 5713 5713 5714 5714 5714 5713 5713 5712 5712 5710 5709 5708 5706 5704 5703
5745 5742 5738 5735 5732 5730 5728 5726 5724 5723 5721 5719 5717 5716 5714 5713 5712 5711 5711 5711 5710 5710 5710 5711 5711 5711 5711 5712 5712 5712 5712 5712 5711 5710 5709 5708 5707 5705 5703 5702 5699 5697 5695
5748 5744 5741 5738 5735 5733 5731 5729 5727 5726 5724 5722 5721 5719 5718 5717 5716 5715 5714 5713 5713 5712 5712 5712 5712 5712 5712 5712 5712 5712 5711 5710 5709 5708 5706 5705 5703 5701 5698 5696 5693 5690 5687
5751 5748 5744 5741 5739 5737 5735 5733 5731 5730 5728 5726 5725 5723 5722 5721 5720 5719 5718 5717 5716 5715 5715 5714 5714 5714 5713 5713 5712 5712 5710 5709 5708 5706 5704 5702 5699 5697 5694 5691 5687 5683 5680
5754 5751 5748 5746 5743 5741 5739 5737 5736 5734 5732 5731 5729 5728 5727 5725 5724 5723 5722 5721 5720 5719 5718 5717 5717 5716 5715 5714 5713 5712 5710 5709 5707 5705 5702 5700 5697 5694 5690 5687 5683 5678 5674
5757 5755 5752 5750 5748 5746 5744 5742 5740 5739 5737 5735 5734 5732 5731 5730 5729 5727 5726 5725 5724 5723 5722 5721 5719 5718 5717 5716 5714 5713 5711 5709 5706 5704 5701 5698 5695 5692 5688 5684 5679 5674 5669
5760 5758 5756 5754 5752 5750 5748 5746 5745 5743 5741 5740 5738 5737 5735 5734 5733 5731 5730 5729 5727 5726 5725 5723 5722 5721 5719 5717 5716 5714 5712 5709 5707 5704 5701 5698 5694 5690 5686 5682 5677 5671 5665
5763 5761 5760 5758 5756 5754 5752 5750 5749 5747 5746 5744 5742 5741 5739 5738 5736 5735 5733 5732 5731 5729 5728 5726 5725 5723 5721 5719 5717 5715 5713 5710 5707 5704 5701 5698 5694 5690 5685 5680 5675 5669 5663
5765 5764 5762 5761 5759 5758 5756 5754 5752 5751 5749 5748 5746 5744 5743 5741 5740 5738 5737 5735 5734 5732 5731 5729 5727 5725 5723 5721 5719 5717 5714 5711 5708 5705 5701 5698 5694 5689 5685 5680 5674 5669 5662